This demonstration page uses our WeatherBlox Daily Observations layout. Learn more.

Left ArrowRight Arrow

36.19886, -115.1175

Hourly Observations for May 14, 2021

Temp ( °F °C ) Dew Point ( °F °C ) Humidity (%) Winds ( mph kmh ) Pressure ( in mb ) Visibility ( mi km ) Precip ( " mm )
12:53 am 00:53 Clear 83 28.3 20 -6.7 10 10 SSW 6 9 29.79 1009 10 16 N/A
1:53 am 01:53 Clear 80 26.7 22 -5.6 11 11 N N/A 29.78 1009 10 16 N/A
2:53 am 02:53 Clear 74 23.3 24 -4.4 15 15 WNW 5 7 29.79 1009 10 16 N/A
3:53 am 03:53 Clear 73 22.8 23 -5 15 15 NW 5 7 29.79 1009 10 16 N/A
4:53 am 04:53 Clear 74 23.3 18 -7.8 12 12 N 8 13 29.79 1009 10 16 N/A
5:53 am 05:53 Sunny 70 21.1 21 -6.1 16 16 NNW 8 13 29.80 1009 10 16 N/A
6:53 am 06:53 Sunny 74 23.3 25 -3.9 16 16 N 6 9 29.82 1010 10 16 N/A
7:53 am 07:53 Sunny 79 26.1 24 -4.4 13 13 NNE 3 6 29.83 1010 10 16 N/A
8:53 am 08:53 Sunny 81 27.2 25 -3.9 13 13 N N/A 29.83 1010 10 16 N/A
9:53 am 09:53 Sunny 85 29.4 25 -3.9 11 11 SSE 6 9 29.83 1010 10 16 N/A
10:53 am 10:53 Sunny 90 32.2 29 -1.7 11 11 ESE 10 17 29.81 1010 10 16 N/A
11:53 am 11:53 Sunny 93 33.9 25 -3.9 8 8 E 10 17 29.79 1009 10 16 N/A
12:53 pm 12:53 Sunny 94 34.4 20 -6.7 7 7 VRB 6 9 29.76 1008 10 16 N/A
1:53 pm 13:53 Sunny 98 36.7 20 -6.7 6 6 ESE 14 22 29.72 1007 10 16 N/A
2:53 pm 14:53 Sunny 97 36.1 19 -7.2 6 6 SSE 15 24 29.70 1006 10 16 N/A
3:53 pm 15:53 Sunny 98 36.7 20 -6.7 6 6 ESE 15 24 29.66 1005 10 16 N/A
4:53 pm 16:53 Sunny 97 36.1 21 -6.1 6 6 E 12 19 29.63 1003 10 16 N/A
5:53 pm 17:53 Sunny 98 36.7 20 -6.7 6 6 WSW 17 28 29.62 1003 10 16 N/A
6:53 pm 18:53 Sunny 95 35 15 -9.4 5 5 SW 14 22 29.62 1003 10 16 N/A
7:53 pm 19:53 Clear 93 33.9 15 -9.4 6 6 SW 14 22 29.63 1003 10 16 N/A
8:53 pm 20:53 Clear 90 32.2 14 -10 6 6 SSW 7 11 29.64 1004 10 16 N/A
9:53 pm 21:53 Clear 87 30.6 18 -7.8 8 8 S 7 11 29.65 1004 10 16 N/A
10:53 pm 22:53 Clear 87 30.6 13 -10.6 6 6 SSW 9 15 29.65 1004 10 16 N/A
11:53 pm 23:53 Clear 84 28.9 19 -7.2 9 9 SSW 13 20 29.65 1004 10 16 N/A

Powered by AerisWeather